{"data":{"norad_id":62177,"intl_designator":"2024-225Q","name":"STARLINK-32542","alt_names":[],"object_type":"PAYLOAD","status":"ACTIVE","operator":null,"country":"US","launch_date":"2024-11-30","launch_site_code":"AFWTR","launch_vehicle":null,"mission":null,"orbit_class":"UNKNOWN","rcs_meters":null,"size_class":null,"mass_kg":null,"dimensions":null,"purposes":["comms"],"wikipedia_slug":null,"has_3d_model":false,"image_url":null,"decayed_at":null,"tle_current":{"epoch":"2026-05-24T22:12:33.722784Z","epoch_age_seconds":84762,"freshness":"FRESH","line1":"1 62177U 24225Q   26144.92539031  .00003939  00000+0  33770-3 0  9993","line2":"2 62177  70.0021 332.2641 0003011 268.7930  91.2884 14.98335670 81294","mean_motion":14.9833567,"eccentricity":0.0003011,"inclination_deg":70.0021,"raan_deg":332.2641,"arg_perigee_deg":268.793,"mean_anomaly_deg":91.2884,"bstar":0.0003377,"rev_number":8129,"period_min":96.106635437705,"perigee_km":569.94565919244,"apogee_km":574.13105479242,"semimajor_km":6950.1753569924,"source":"CELESTRAK","updated_at":"2026-05-25T13:38:19.603510Z"}}}